Weather in Verhnyaya Pyshma

Russia / Sverdlovsk Oblast     56°58′01″N   60°34′45″E
temp.,
°C
wind,
m/s
gust,
m/s
humid.,
%
clouds,
%
prec.,
mm/h
press.,
hPa
HPBL,
m
31 july, sat
sat3123:00+16w3109819 0.8 1003342
02:00+15w3109818 0.0 1004341
05:00+13w289818 0.0 1006232
08:00+17wnw2491100 0.0 1007289
11:00+21w2465100 0.0 10071015
14:00+25wsw3548100 0.0 10072027
17:00+20wsw4782100 0.6 1008544
20:00+17s259799 1.4 1007184
1 august, sun
sun123:00+17sse299691 1.4 1006270
02:00+16sw2129763 0.0 1006325
05:00+17wsw3129721 0.0 1006362
08:00+18w4119297 0.0 1006537
11:00+21w59680 0.0 1007884
14:00+25wnw684948 0.0 10071797
17:00+26w593971 0.0 10082229
20:00+20wnw410690 0.1 10091008
2 august, mon
mon223:00+17w310790 0.1 1010259
02:00+15w3978100 0.0 1011197
05:00+14w3108130 0.0 1012278
08:00+18wnw4116754 0.0 1013559
11:00+23wnw51048100 0.0 10131746
14:00+26wnw593879 0.0 10122534
17:00+22wnw2357100 0.0 101376
20:00+21w2567100 0.0 1013126
3 august, tue
tue323:00+18w238198 0.0 101359
02:00+17sw2384100 0.1 101252
05:00+16ssw1192100 1.5 101311
08:00+19wsw398528 0.6 1012318
11:00+24wnw485848 0.6 1012867
14:00+25wnw3753100 0.0 1012796
17:00+29nw37425 0.0 10111902
20:00+24ene22655 0.0 101225
4 august, wed
wed423:00+20sse227612 0.0 101220
02:00+19ssw22776 0.0 101220
05:00+17ssw227373 0.0 101228
08:00+23sw24599 0.0 1012163
11:00+30s233843 0.0 1011641
14:00+33sw342922 0.0 10101865
17:00+33w23275 0.0 10091840
20:00+28sw11485 0.0 100916